This is the latest recevied weather packets stored in our database for station/object NK7E. If no packets are shown the sender has not sent any weather packets the latest 10 day(s).
| Time | Temp. | Humidity | Pressure | Rain* | Wind** | Luminosity | Snow |
|---|---|---|---|---|---|---|---|
| 1777487116 | 25° C | 18% | 1016.3 hPa | 0 mm | - | 950 W/m² | - |
| 1777486516 | 23.89° C | 19% | 1016.5 hPa | 0 mm | - | 388 W/m² | - |
| 1777485916 | 24.44° C | 19% | 1016.4 hPa | 0 mm | - | 409 W/m² | - |
| 1777485316 | 24.44° C | 19% | 1016.5 hPa | 0 mm | - | 424 W/m² | - |
| 1777484716 | 24.44° C | 19% | 1016.6 hPa | 0 mm | - | 473 W/m² | - |
| 1777484116 | 24.44° C | 20% | 1016.8 hPa | 0 mm | - | 438 W/m² | - |
| 1777483516 | 24.44° C | 19% | 1016.8 hPa | 0 mm | - | 508 W/m² | - |
| 1777482916 | 23.89° C | 20% | 1016.7 hPa | 0 mm | - | 747 W/m² | - |
| 1777482315 | 23.89° C | 20% | 1016.7 hPa | 0 mm | - | 673 W/m² | - |
| 1777481716 | 23.33° C | 20% | 1016.6 hPa | 0 mm | - | 678 W/m² | - |
| 1777481115 | 22.78° C | 21% | 1016.6 hPa | 0 mm | - | 544 W/m² | - |
| 1777480516 | 22.78° C | 21% | 1016.6 hPa | 0 mm | - | 395 W/m² | - |
| 1777479916 | 22.22° C | 21% | 1016.5 hPa | 0 mm | - | 757 W/m² | - |
| 1777479316 | 21.11° C | 23% | 1016.6 hPa | 0 mm | - | 608 W/m² | - |
| 1777478716 | 20.56° C | 25% | 1016.7 hPa | 0 mm | - | 570 W/m² | - |
| 1777478116 | 20° C | 25% | 1016.7 hPa | 0 mm | - | 270 W/m² | - |
| 1777477516 | 19.44° C | 26% | 1016.6 hPa | 0 mm | - | 419 W/m² | - |
| 1777476916 | 18.89° C | 28% | 1016.5 hPa | 0 mm | - | 303 W/m² | - |
| 1777476316 | 18.33° C | 28% | 1016.7 hPa | 0 mm | - | 213 W/m² | - |
| 1777475716 | 18.33° C | 29% | 1016.6 hPa | 0 mm | - | 203 W/m² | - |
| 1777475116 | 17.78° C | 30% | 1016.6 hPa | 0 mm | - | 172 W/m² | - |
| 1777474516 | 17.78° C | 29% | 1016.6 hPa | 0 mm | - | 156 W/m² | - |
| 1777473916 | 17.22° C | 30% | 1016.5 hPa | 0 mm | - | 142 W/m² | - |
| 1777473316 | 17.22° C | 31% | 1016.4 hPa | 0 mm | - | 134 W/m² | - |
| 1777472716 | 17.22° C | 32% | 1016.5 hPa | 0 mm | - | 103 W/m² | - |
* Rain latest hour (hover to see other rain measurements)
** Current wind speed in m/s (hover to see current wind gust speed)